STARLINK-3306 (50163 NORAD) Tracking and Keplerian Element Data
This shows tracking and keplerian element data for the satellite.
Feedback or suggestion? Click here.
Element | Value |
Catalog | 50163 |
Name | STARLINK-3306 |
Epoch Orbit | 2660 |
Epoch Day | 140.91667824 |
Epoch Year | 2022 |
RAAN | 353.5629 |
Inclination | 53.2134 |
Eccentricity | 0.0001575 |
Argument of Perigee | 46.1387 |
Mean Anonmoly | 41.7977 |
Mean Motion | 15.08826898 |
Decay Rate | -3.783E-05 |
L1 | 1 50163U 21125H 22140.91667824 -.00003783 00000+0 -21979-3 0 9991 |
L2 | 2 50163 53.2134 353.5629 0001575 46.1387 41.7977 15.08826898 26609 |
Live tracking and technical data element details for STARLINK-3306 (NORAD 50163). STARLINK-3306 can be tracked NOW for your location showing map with azimuth and elevation plus other details from your city location.
Track the satellite on the map from your city or location and see movement details for azimuth, elevation, latitude, longitude, range, height, and movement on the map or in text.
IsCatalogInMostPopularTable: catalog: 50163, numindb: 30
Update: records affected: 1
GetName: 50163 STARLINK-3306
Hit Count: updated at: Sun, 22 May 2022 03:56:22 GMT